World > North America > United States > New York

Richmond County, New York Regional Weather

Lat: 40.57N, Lon: 74.14W
Wx Zone: NYZ074Web Search

Helpful Tip: Type the letters wx in the search engine next time you need to find us.

Feedback


°F Click to change Richmond County hourly weather to Imperial units.Click to change Richmond County hourly weather to Metric units. °C
Richmond County Weather Map
UTC Time: 5/19/2021, 00:19
Your Time:

Richmond County, NY Regional Weather

Expires:202105190100;;335585
ASUS41 KALY 190010
RWRALY

NEW YORK STATE HOURLY WEATHER ROUNDUP
NATIONAL WEATHER SERVICE ALBANY NY
800 PM EDT TUE MAY 18 2021

NOTE: "FAIR" INDICATES FEW OR NO CLOUDS BELOW 12,000 FEET WITH NO
SIGNIFICANT WEATHER AND/OR NO OBSTRUCTIONS TO VISIBILITY.


NYZ032-033-038>043-046>054-057>066-NYZ062>081-082-084-190100-
EAST

  
CITY           SKY/WX    TMP DP  RH WIND       PRES   REMARKS
ALBANY         MOCLDY    72  45  37 W10       30.18F                  
GLENS FALLS    NOT AVBL                                               
POUGHKEEPSIE   PTCLDY    75  48  38 CALM      30.18R                  
NEWBURGH       PTCLDY    75  45  33 NW9       30.20F                  
MONTGOMERY     PTCLDY    72  43  35 W6        30.19R                  
WHITE PLAINS   PTCLDY    73  43  33 W5        30.20R                  
ISLIP          PTCLDY    66  50  56 SW13      30.22F                  
NEW YORK CITY  PTCLDY    81  39  22 W9        30.19F                  
CENTRAL PARK   CLEAR     77  42  28 VRB6      30.23S                  
$$


SKY/WX - Weather  TMP - Temperature  DP - Dew Point  RH - Relative Humidity
WIND - Wind Direction/Speed PRES - Barometric Pressure VSB - Visibility
WCI - Wind Chill Index E13G22 Wind - East Wind 13 mph/Gusts of 22 mph